Home > Weather > Huntsville > Past weeks

Flag for U.S.A. Weather for the Past 2 Weeks in Huntsville, Alabama, U.S.A.

Now
48 °F

Broken clouds.


Feels Like: 47 °F
Forecast: 27 / 50 °F
Wind: 3 mph from East

Location: Huntsville International / Jones Field

Current Time: Feb 6, 2016 at 1:29:10 PM

Latest Report: Feb 6, 2016 at 12:53 PM


Visibility: 10 mi

Pressure: 30.34 "Hg

Humidity: 30%

Dew point: 18 °F

Location of HuntsvilleLocation

Historic Weather in Huntsville — Graph

°F

Huntsville Temperature Yesterday

Maximum temperature yesterday: 50 °F (at 2:53 PM)
Minimum temperature yesterday: 27 °F (at 4:53 AM)
Average temperature yesterday: 38 °F

High & Low Weather Summary for the Past Weeks

 TemperatureHumidityPressure
High75 °F (Feb 2, 1:53 PM)93% (Jan 26, 11:53 AM)30.49 "Hg (Jan 26, 11:53 AM)
Low20 °F (Jan 24, 3:53 AM)26% (Feb 5, 3:53 PM)29.64 "Hg (Jan 22, 12:01 PM)
Average45 °F67%30.07 "Hg
* Reported Jan 22 12:01 PM — Feb 6 11:53 AM, Huntsville, Weather by CustomWeather, © 2016

Note: Actual official high and low records may vary slightly from our data, if they occured in-between our weather recording intervals... More about our weather records

Advertising

Huntsville Weather History for the Previous 24 Hours

 ConditionsComfort  
Time TempWeatherWind HumidityBarometerVisibility
11:53 AM
Sat, Feb 6
48 °FBroken clouds.3 mph33%30.37 "Hg10 mi
10:53 AM45 °FBroken clouds.No wind40%30.40 "Hg10 mi
9:53 AM45 °FPartly sunny.No wind35%30.41 "Hg10 mi
8:53 AM42 °FPartly sunny.3 mph53%30.40 "Hg10 mi
7:53 AM34 °FPartly sunny.3 mph79%30.41 "Hg10 mi
6:53 AM33 °FPartly sunny.No wind78%30.40 "Hg10 mi
5:53 AM31 °FPassing clouds.No wind82%30.38 "Hg10 mi
4:53 AM31 °FClear.No wind82%30.37 "Hg10 mi
3:53 AM31 °FClear.5 mph76%30.37 "Hg10 mi
2:53 AM31 °FClear.5 mph79%30.38 "Hg10 mi
1:53 AM32 °FClear.3 mph75%30.37 "Hg10 mi
12:53 AM34 °FClear.No wind73%30.38 "Hg10 mi
11:53 PM
Fri, Feb 5
34 °FPassing clouds.No wind70%30.38 "Hg10 mi
10:53 PM33 °FPassing clouds.No wind72%30.39 "Hg10 mi
9:53 PM33 °FPassing clouds.No wind70%30.40 "Hg10 mi
8:53 PM38 °FPassing clouds.No wind46%30.39 "Hg10 mi
7:53 PM38 °FPassing clouds.5 mph48%30.40 "Hg10 mi
6:53 PM39 °FPassing clouds.No wind46%30.41 "Hg10 mi
5:53 PM45 °FPassing clouds.3 mph30%30.40 "Hg10 mi
4:53 PM47 °FScattered clouds.5 mph34%30.40 "Hg10 mi
3:53 PM50 °FPassing clouds.6 mph26%30.40 "Hg10 mi
2:53 PM50 °FScattered clouds.10 mph27%30.41 "Hg10 mi
1:53 PM49 °FScattered clouds.9 mph29%30.42 "Hg10 mi
Weather by CustomWeather, © 2016

See weather overviewHow to use our weather pages